HST
1 20580U 90037B   25198.27105692  .00003718  00000-0  13415-3 0  9997
2 20580  28.4667 200.9564 0002209  71.8388 288.2447 15.25574939737545
ISS (ZARYA)
1 25544U 98067A   25199.20410805  .00007024  00000-0  13123-3 0  9992
2 25544  51.6336 153.3248 0002239  91.7860 268.3385 15.49935069519976
CXO
1 25867U 99040B   25201.17133178  .00000577  00000-0  00000+0 0  9999
2 25867  50.2044 128.2122 8375655 309.9049   0.4385  0.37804860 27225